World > North America > United States > Ohio > Cleves  

Cleves, OH Hourly Weather Updates

Feedback E-mail the Weather

Quick Clicks

Cleves, OH Weather Maps

°F °C°F °C
Cleves Weather Map
UTC Time: 4/21/2024, 09:28
Your Time:

Cleves, OH Regional Weather

Expires:202404211000;;120436
ASUS41 KCLE 210912
RWRCLE
OHIO REGIONAL WEATHER ROUNDUP
NATIONAL WEATHER SERVICE WILMINGTON, OH
500 AM EDT SUN APR 21 2024

NOTE: "FAIR" INDICATES FEW OR NO CLOUDS BELOW 12,000 FEET WITH NO
SIGNIFICANT WEATHER AND/OR OBSTRUCTIONS TO VISIBILITY.


OHZ042-051>053-060>062-070>072-077>081-211000-
  SOUTHWEST OHIO
  
CITY           SKY/WX    TMP DP  RH WIND       PRES   REMARKS
CINC-COVINGTON FAIR      39  28  64 NW9       30.15R                  
CINC-LUNKEN    FAIR      42  29  59 W9        30.17R                  
HAMILTON       FAIR      40  32  73 W3        30.17R                  
DAYTON         CLOUDY    41  27  57 NW8       30.13S                  
WRIGHT-PAT AFB CLOUDY    45  28  51 NW7       30.12S                  
DAYTON GENERAL FAIR      39  28  64 NW6       30.12S                  
WILMINGTON     MOCLDY    39  29  67 NW7       30.12R                  
$$


SKY/WX - Weather  TMP - Temperature  DP - Dew Point  RH - Humidity
WIND - Wind Direction/Speed PRES - Barometric Pressure VSB - Visibility
WCI - Wind Chill Index E13G22 Wind - East Wind 13 mph/Gusts of 22 mph

Trending Headlines

Trending Entertainment Headlines

Cleves Radar Loop

Use the map search tool if you want to place a location marker on the radar map...

Cleves Quick Facts

National Two Day Weather Forecast


E-mail the Cleves Weather Forecast

Voice your opinion or tell us about page issues...